QPF
0.10 0.20 0.24 0.30 0.28 0.24 0.20 0.14 0.11 0.12 0.11 0.09 0.09 0.10 0.11 0.12 0.16 0.20 0.19 0.14 0.15 0.16 0.14 0.13 0.13 0.12 0.12 0.12 0.13 0.13 0.12 0.11 0.10 0.10 0.09 0.08 0.08 0.09 0.10 0.11 0.12 0.14 0.16
0.15 0.24 0.35 0.53 0.54 0.47 0.36 0.28 0.21 0.21 0.21 0.16 0.14 0.14 0.13 0.13 0.14 0.16 0.16 0.15 0.16 0.16 0.14 0.14 0.14 0.13 0.12 0.12 0.11 0.11 0.12 0.12 0.10 0.10 0.09 0.08 0.07 0.07 0.08 0.08 0.08 0.08 0.08
0.21 0.27 0.42 0.57 0.63 0.62 0.55 0.45 0.35 0.33 0.40 0.33 0.24 0.20 0.19 0.20 0.21 0.18 0.17 0.17 0.17 0.17 0.18 0.18 0.17 0.14 0.12 0.11 0.10 0.10 0.10 0.09 0.09 0.10 0.10 0.09 0.07 0.07 0.07 0.07 0.06 0.05 0.05
0.29 0.41 0.54 0.61 0.64 0.69 0.65 0.59 0.49 0.39 0.36 0.35 0.33 0.32 0.32 0.31 0.31 0.31 0.31 0.30 0.28 0.25 0.21 0.19 0.18 0.14 0.12 0.13 0.14 0.13 0.11 0.10 0.09 0.09 0.10 0.10 0.08 0.07 0.06 0.05 0.05 0.04 0.04
0.26 0.42 0.54 0.57 0.53 0.50 0.53 0.53 0.53 0.47 0.47 0.44 0.43 0.44 0.42 0.39 0.36 0.31 0.30 0.30 0.27 0.23 0.18 0.16 0.15 0.14 0.13 0.12 0.11 0.10 0.08 0.07 0.07 0.08 0.08 0.08 0.07 0.06 0.06 0.05 0.04 0.05 0.04
0.16 0.27 0.41 0.37 0.39 0.43 0.45 0.47 0.46 0.46 0.46 0.46 0.46 0.45 0.44 0.44 0.41 0.35 0.28 0.23 0.20 0.16 0.14 0.14 0.13 0.11 0.08 0.07 0.06 0.05 0.04 0.04 0.04 0.05 0.05 0.04 0.04 0.04 0.04 0.04 0.04 0.03 0.04
0.11 0.24 0.31 0.25 0.23 0.36 0.52 0.53 0.52 0.48 0.50 0.52 0.51 0.48 0.45 0.42 0.35 0.30 0.23 0.19 0.15 0.13 0.12 0.12 0.11 0.08 0.06 0.05 0.05 0.04 0.04 0.04 0.04 0.05 0.04 0.03 0.03 0.03 0.03 0.04 0.04 0.04 0.03
0.09 0.10 0.18 0.16 0.20 0.22 0.29 0.34 0.37 0.36 0.35 0.33 0.34 0.33 0.30 0.27 0.26 0.22 0.18 0.14 0.12 0.10 0.08 0.06 0.05 0.04 0.03 0.03 0.03 0.03 0.04 0.04 0.04 0.04 0.04 0.03 0.03 0.03 0.03 0.03 0.04 0.04 0.03
0.06 0.06 0.07 0.09 0.16 0.21 0.23 0.22 0.21 0.21 0.22 0.21 0.19 0.18 0.18 0.17 0.17 0.17 0.14 0.11 0.09 0.07 0.05 0.04 0.03 0.03 0.02 0.02 0.01 0.02 0.02 0.03 0.04 0.04 0.03 0.02 0.02 0.02 0.02 0.02 0.03 0.04 0.04
0.04 0.04 0.04 0.05 0.07 0.10 0.15 0.17 0.13 0.12 0.11 0.11 0.11 0.10 0.11 0.11 0.11 0.11 0.10 0.08 0.07 0.06 0.05 0.04 0.03 0.02 0.02 0.02 0.02 0.02 0.02 0.02 0.02 0.02 0.02 0.02 0.02 0.02 0.02 0.02 0.03 0.03 0.04
0.03 0.03 0.03 0.03 0.03 0.04 0.05 0.07 0.07 0.06 0.06 0.06 0.06 0.06 0.07 0.08 0.08 0.08 0.08 0.08 0.07 0.05 0.04 0.04 0.03 0.03 0.02 0.02 0.02 0.02 0.02 0.03 0.03 0.03 0.02 0.02 0.02 0.01 0.01 0.01 0.01 0.02 0.02
0.03 0.02 0.02 0.02 0.02 0.02 0.02 0.03 0.03 0.03 0.03 0.03 0.03 0.04 0.05 0.05 0.05 0.05 0.05 0.05 0.04 0.03 0.03 0.02 0.01 0.01 0.01 0.01 0.01 0.01 0.02 0.02 0.01 0.01 0.01 0.01 0.01 0.00 0.00 0.01 0.01 0.01 0.01
0.02 0.02 0.02 0.02 0.02 0.02 0.01 0.01 0.01 0.01 0.01 0.02 0.02 0.02 0.02 0.02 0.03 0.02 0.03 0.03 0.02 0.02 0.01 0.01 0.01 0.00 0.00 0.00 0.00 0.00 0.00 0.00 0.00 0.00 0.00 0.00 0.00 0.01 0.01 0.01 0.01 0.01 0.00
0.02 0.02 0.02 0.02 0.01 0.01 0.01 0.01 0.01 0.01 0.01 0.01 0.01 0.01 0.01 0.01 0.01 0.01 0.01 0.01 0.01 0.01 0.01 0.00 0.00 0.00 0.00 0.00 0.00 0.00 0.00 0.00 0.00 0.00 0.00 0.00 0.00 0.00 0.00 0.00 0.00 0.00 0.00
0.01 0.01 0.01 0.01 0.01 0.01 0.01 0.01 0.01 0.01 0.00 0.00 0.00 0.00 0.00 0.00 0.00 0.00 0.00 0.00 0.00 0.00 0.00 0.00 0.00 0.00 0.00 0.00 0.00 0.00 0.00 0.00 0.00 0.00 0.00 0.00 0.00 0.00 0.00 0.00 0.00 0.00 0.00
0.02 0.02 0.01 0.01 0.01 0.01 0.01 0.00 0.00 0.00 0.00 0.00 0.00 0.00 0.00 0.00 0.00 0.00 0.00 0.00 0.00 0.00 0.00 0.00 0.00 0.00 0.00 0.00 0.00 0.00 0.00 0.00 0.00 0.00 0.00 0.00 0.00 0.00 0.00 0.00 0.00 0.00 0.00
0.02 0.02 0.02 0.01 0.01 0.01 0.01 0.00 0.01 0.01 0.00 0.00 0.00 0.00 0.00 0.00 0.00 0.00 0.00 0.00 0.00 0.00 0.00 0.00 0.00 0.00 0.00 0.00 0.00 0.00 0.00 0.00 0.00 0.00 0.00 0.00 0.00 0.00 0.00 0.00 0.00 0.00 0.00
0.06 0.06 0.06 0.04 0.03 0.02 0.01 0.00 0.01 0.01 0.00 0.00 0.00 0.00 0.00 0.00 0.00 0.00 0.00 0.00 0.00 0.00 0.00 0.00 0.00 0.00 0.00 0.00 0.00 0.00 0.00 0.00 0.00 0.00 0.00 0.00 0.00 0.00 0.00 0.00 0.00 0.00 0.00
0.07 0.06 0.06 0.04 0.03 0.01 0.00 0.00 0.00 0.00 0.00 0.00 0.00 0.00 0.00 0.00 0.00 0.00 0.00 0.00 0.00 0.00 0.00 0.00 0.00 0.00 0.00 0.00 0.00 0.00 0.00 0.00 0.00 0.00 0.00 0.00 0.00 0.00 0.00 0.00 0.00 0.00 0.00
0.04 0.03 0.03 0.02 0.02 0.01 0.01 0.01 0.01 0.00 0.00 0.00 0.00 0.00 0.00 0.00 0.00 0.00 0.00 0.00 0.00 0.00 0.00 0.00 0.00 0.00 0.00 0.00 0.00 0.00 0.00 0.00 0.00 0.00 0.00 0.00 0.00 0.00 0.00 0.00 0.00 0.00 0.00
0.04 0.04 0.04 0.04 0.03 0.02 0.01 0.01 0.00 0.00 0.00 0.00 0.00 0.00 0.00 0.00 0.00 0.00 0.00 0.00 0.00 0.00 0.00 0.00 0.00 0.00 0.00 0.00 0.00 0.00 0.00 0.00 0.00 0.00 0.00 0.00 0.00 0.00 0.00 0.00 0.00 0.00 0.00
0.05 0.05 0.05 0.05 0.04 0.02 0.01 0.01 0.00 0.00 0.00 0.00 0.00 0.00 0.00 0.00 0.00 0.00 0.00 0.00 0.00 0.00 0.00 0.00 0.00 0.00 0.00 0.00 0.00 0.00 0.00 0.00 0.00 0.00 0.00 0.00 0.00 0.00 0.00 0.00 0.00 0.00 0.00
0.04 0.05 0.07 0.07 0.05 0.03 0.02 0.01 0.00 0.00 0.00 0.00 0.00 0.00 0.00 0.00 0.00 0.00 0.00 0.00 0.00 0.00 0.00 0.00 0.00 0.00 0.00 0.00 0.00 0.00 0.00 0.00 0.00 0.00 0.00 0.00 0.00 0.00 0.00 0.00 0.00 0.00 0.00
0.03 0.03 0.04 0.04 0.03 0.02 0.01 0.01 0.00 0.00 0.00 0.00 0.00 0.00 0.00 0.00 0.00 0.00 0.00 0.00 0.00 0.00 0.00 0.00 0.00 0.00 0.00 0.00 0.00 0.00 0.00 0.00 0.00 0.00 0.00 0.00 0.00 0.00 0.00 0.00 0.00 0.00 0.00
0.02 0.02 0.02 0.02 0.01 0.01 0.01 0.01 0.00 0.00 0.00 0.00 0.00 0.01 0.00 0.00 0.00 0.00 0.00 0.00 0.00 0.00 0.00 0.00 0.00 0.00 0.00 0.00 0.00 0.00 0.00 0.00 0.00 0.00 0.00 0.00 0.00 0.00 0.00 0.01 0.00 0.00 0.00
0.01 0.01 0.01 0.01 0.01 0.01 0.01 0.01 0.01 0.01 0.01 0.00 0.00 0.00 0.00 0.00 0.00 0.00 0.00 0.00 0.00 0.00 0.00 0.00 0.00 0.00 0.00 0.00 0.00 0.00 0.00 0.00 0.00 0.00 0.00 0.01 0.00 0.00 0.00 0.00 0.00 0.00 0.00
MSLP
1007.21 1007.23 1007.30 1007.41 1007.56 1007.74 1007.99 1008.31 1008.76 1009.35 1010.09 1010.95 1011.92 1012.94 1013.95 1014.88 1015.68 1016.31 1016.78 1017.09 1017.28 1017.40 1017.51 1017.63 1017.81 1018.04 1018.31 1018.61 1018.88 1019.11 1019.26 1019.32 1019.29 1019.17 1018.99 1018.77 1018.52 1018.25 1017.99 1017.72 1017.46 1017.20 1016.96
1007.90 1007.93 1007.98 1008.04 1008.11 1008.20 1008.34 1008.58 1008.95 1009.49 1010.21 1011.09 1012.10 1013.17 1014.23 1015.22 1016.07 1016.74 1017.24 1017.58 1017.79 1017.93 1018.05 1018.17 1018.34 1018.55 1018.79 1019.05 1019.28 1019.46 1019.57 1019.59 1019.54 1019.42 1019.25 1019.05 1018.83 1018.61 1018.38 1018.14 1017.89 1017.64 1017.39
1008.87 1008.92 1008.96 1008.99 1008.99 1008.99 1009.03 1009.17 1009.46 1009.92 1010.59 1011.44 1012.43 1013.50 1014.58 1015.59 1016.46 1017.17 1017.71 1018.08 1018.33 1018.51 1018.64 1018.79 1018.96 1019.15 1019.37 1019.58 1019.76 1019.89 1019.96 1019.96 1019.90 1019.79 1019.66 1019.50 1019.34 1019.17 1018.99 1018.79 1018.58 1018.34 1018.09
1010.04 1010.11 1010.16 1010.16 1010.12 1010.06 1010.03 1010.08 1010.28 1010.66 1011.25 1012.03 1012.96 1013.98 1015.02 1016.01 1016.89 1017.61 1018.18 1018.60 1018.90 1019.13 1019.31 1019.49 1019.67 1019.86 1020.05 1020.23 1020.37 1020.46 1020.50 1020.48 1020.42 1020.33 1020.23 1020.13 1020.03 1019.92 1019.80 1019.65 1019.47 1019.26 1019.01
1011.28 1011.39 1011.47 1011.48 1011.43 1011.34 1011.26 1011.25 1011.38 1011.68 1012.17 1012.86 1013.69 1014.63 1015.60 1016.53 1017.38 1018.11 1018.69 1019.16 1019.52 1019.80 1020.04 1020.26 1020.47 1020.66 1020.84 1020.99 1021.09 1021.15 1021.16 1021.13 1021.08 1021.02 1020.96 1020.91 1020.87 1020.82 1020.75 1020.64 1020.50 1020.30 1020.05
1012.51 1012.68 1012.80 1012.85 1012.83 1012.75 1012.67 1012.64 1012.71 1012.94 1013.34 1013.91 1014.64 1015.46 1016.32 1017.18 1017.97 1018.67 1019.27 1019.77 1020.18 1020.53 1020.83 1021.09 1021.33 1021.54 1021.70 1021.83 1021.90 1021.93 1021.92 1021.88 1021.83 1021.79 1021.77 1021.76 1021.76 1021.75 1021.73 1021.66 1021.53 1021.34 1021.10
1013.68 1013.91 1014.10 1014.22 1014.26 1014.23 1014.18 1014.16 1014.21 1014.38 1014.70 1015.17 1015.76 1016.46 1017.20 1017.95 1018.67 1019.34 1019.93 1020.45 1020.90 1021.30 1021.65 1021.96 1022.22 1022.43 1022.59 1022.69 1022.73 1022.73 1022.69 1022.64 1022.59 1022.57 1022.56 1022.58 1022.61 1022.63 1022.63 1022.58 1022.47 1022.29 1022.05
1014.74 1015.05 1015.32 1015.52 1015.64 1015.69 1015.70 1015.71 1015.77 1015.91 1016.17 1016.54 1017.02 1017.58 1018.20 1018.85 1019.48 1020.09 1020.67 1021.19 1021.67 1022.11 1022.49 1022.82 1023.09 1023.30 1023.44 1023.50 1023.51 1023.47 1023.41 1023.34 1023.28 1023.25 1023.25 1023.27 1023.32 1023.36 1023.37 1023.33 1023.24 1023.07 1022.84
1015.67 1016.06 1016.42 1016.71 1016.92 1017.06 1017.15 1017.21 1017.30 1017.43 1017.65 1017.94 1018.32 1018.78 1019.28 1019.82 1020.37 1020.92 1021.47 1021.98 1022.47 1022.92 1023.32 1023.66 1023.92 1024.10 1024.21 1024.23 1024.19 1024.11 1024.01 1023.91 1023.83 1023.78 1023.77 1023.80 1023.84 1023.88 1023.90 1023.88 1023.80 1023.65 1023.43
1016.49 1016.96 1017.39 1017.76 1018.06 1018.28 1018.44 1018.57 1018.69 1018.84 1019.03 1019.28 1019.59 1019.95 1020.36 1020.82 1021.29 1021.79 1022.30 1022.79 1023.27 1023.72 1024.11 1024.43 1024.67 1024.81 1024.87 1024.84 1024.75 1024.62 1024.48 1024.34 1024.23 1024.16 1024.14 1024.15 1024.18 1024.22 1024.24 1024.23 1024.17 1024.04 1023.86
1017.20 1017.73 1018.22 1018.65 1019.00 1019.29 1019.51 1019.70 1019.87 1020.04 1020.23 1020.46 1020.73 1021.04 1021.39 1021.77 1022.20 1022.65 1023.12 1023.59 1024.05 1024.48 1024.85 1025.14 1025.33 1025.43 1025.43 1025.35 1025.20 1025.02 1024.83 1024.66 1024.52 1024.43 1024.38 1024.37 1024.39 1024.42 1024.43 1024.43 1024.39 1024.29 1024.14
1017.85 1018.42 1018.93 1019.38 1019.77 1020.09 1020.35 1020.59 1020.80 1021.00 1021.22 1021.44 1021.70 1021.98 1022.29 1022.64 1023.03 1023.45 1023.89 1024.34 1024.78 1025.18 1025.51 1025.76 1025.91 1025.96 1025.90 1025.77 1025.58 1025.35 1025.13 1024.93 1024.76 1024.65 1024.58 1024.55 1024.54 1024.55 1024.56 1024.56 1024.52 1024.45 1024.33
1018.46 1019.03 1019.53 1019.98 1020.36 1020.69 1020.98 1021.24 1021.49 1021.73 1021.97 1022.22 1022.48 1022.76 1023.06 1023.39 1023.76 1024.16 1024.58 1025.00 1025.42 1025.79 1026.09 1026.30 1026.41 1026.41 1026.31 1026.14 1025.91 1025.66 1025.41 1025.19 1025.01 1024.87 1024.78 1024.73 1024.70 1024.69 1024.68 1024.66 1024.61 1024.54 1024.43
1019.03 1019.58 1020.05 1020.46 1020.81 1021.13 1021.42 1021.71 1021.98 1022.26 1022.54 1022.81 1023.09 1023.38 1023.68 1024.01 1024.37 1024.75 1025.15 1025.56 1025.95 1026.29 1026.57 1026.75 1026.82 1026.79 1026.67 1026.47 1026.23 1025.97 1025.71 1025.48 1025.29 1025.15 1025.04 1024.96 1024.90 1024.85 1024.80 1024.74 1024.67 1024.58 1024.45
1019.58 1020.08 1020.50 1020.85 1021.17 1021.46 1021.75 1022.05 1022.35 1022.66 1022.97 1023.28 1023.58 1023.88 1024.19 1024.52 1024.86 1025.23 1025.61 1025.99 1026.36 1026.68 1026.93 1027.09 1027.15 1027.10 1026.97 1026.77 1026.53 1026.27 1026.03 1025.80 1025.61 1025.46 1025.33 1025.23 1025.13 1025.03 1024.93 1024.81 1024.68 1024.53 1024.37
1020.08 1020.52 1020.88 1021.19 1021.47 1021.74 1022.03 1022.34 1022.67 1023.01 1023.35 1023.68 1024.00 1024.31 1024.62 1024.93 1025.25 1025.59 1025.95 1026.31 1026.64 1026.94 1027.17 1027.32 1027.38 1027.34 1027.21 1027.03 1026.80 1026.56 1026.33 1026.12 1025.94 1025.77 1025.63 1025.49 1025.34 1025.18 1025.01 1024.82 1024.61 1024.39 1024.15
1020.51 1020.90 1021.22 1021.49 1021.74 1022.01 1022.31 1022.64 1022.99 1023.36 1023.72 1024.07 1024.40 1024.70 1024.99 1025.27 1025.56 1025.87 1026.19 1026.51 1026.82 1027.10 1027.32 1027.46 1027.52 1027.49 1027.39 1027.23 1027.03 1026.81 1026.59 1026.39 1026.21 1026.04 1025.87 1025.69 1025.49 1025.26 1025.01 1024.73 1024.43 1024.12 1023.81
1020.88 1021.23 1021.51 1021.77 1022.02 1022.30 1022.62 1022.97 1023.35 1023.75 1024.13 1024.48 1024.80 1025.08 1025.34 1025.58 1025.83 1026.09 1026.36 1026.64 1026.92 1027.17 1027.38 1027.53 1027.59 1027.59 1027.50 1027.37 1027.19 1026.99 1026.79 1026.59 1026.39 1026.20 1026.00 1025.77 1025.51 1025.22 1024.89 1024.53 1024.15 1023.75 1023.36
1021.18 1021.50 1021.78 1022.04 1022.31 1022.62 1022.96 1023.35 1023.76 1024.17 1024.55 1024.90 1025.20 1025.46 1025.67 1025.87 1026.07 1026.27 1026.50 1026.74 1026.99 1027.22 1027.42 1027.57 1027.65 1027.65 1027.59 1027.47 1027.30 1027.11 1026.91 1026.70 1026.48 1026.25 1026.01 1025.74 1025.43 1025.07 1024.67 1024.24 1023.79 1023.33 1022.87
1021.43 1021.75 1022.03 1022.31 1022.61 1022.95 1023.33 1023.75 1024.17 1024.59 1024.98 1025.31 1025.59 1025.81 1025.99 1026.14 1026.29 1026.46 1026.64 1026.85 1027.07 1027.29 1027.48 1027.63 1027.71 1027.73 1027.68 1027.56 1027.40 1027.20 1026.98 1026.74 1026.48 1026.22 1025.93 1025.61 1025.25 1024.85 1024.40 1023.93 1023.43 1022.92 1022.42
1021.67 1021.99 1022.29 1022.59 1022.92 1023.28 1023.69 1024.12 1024.56 1024.98 1025.36 1025.68 1025.93 1026.13 1026.27 1026.40 1026.51 1026.65 1026.81 1026.99 1027.20 1027.41 1027.60 1027.75 1027.83 1027.85 1027.80 1027.68 1027.50 1027.28 1027.02 1026.74 1026.45 1026.13 1025.80 1025.43 1025.04 1024.61 1024.14 1023.65 1023.13 1022.61 1022.09
1021.93 1022.25 1022.56 1022.87 1023.22 1023.60 1024.01 1024.44 1024.88 1025.29 1025.65 1025.95 1026.19 1026.37 1026.51 1026.62 1026.73 1026.85 1027.00 1027.18 1027.38 1027.59 1027.78 1027.92 1028.01 1028.03 1027.96 1027.83 1027.63 1027.37 1027.08 1026.75 1026.41 1026.05 1025.68 1025.28 1024.87 1024.43 1023.96 1023.47 1022.96 1022.45 1021.94
1022.23 1022.54 1022.85 1023.16 1023.50 1023.87 1024.26 1024.68 1025.09 1025.48 1025.82 1026.12 1026.35 1026.53 1026.67 1026.79 1026.91 1027.05 1027.21 1027.40 1027.60 1027.81 1028.00 1028.14 1028.22 1028.23 1028.15 1028.00 1027.77 1027.48 1027.15 1026.79 1026.40 1026.01 1025.61 1025.20 1024.78 1024.35 1023.90 1023.44 1022.96 1022.48 1022.00
1022.57 1022.87 1023.15 1023.44 1023.75 1024.08 1024.44 1024.81 1025.19 1025.55 1025.87 1026.16 1026.40 1026.59 1026.76 1026.91 1027.06 1027.22 1027.40 1027.61 1027.82 1028.03 1028.21 1028.35 1028.42 1028.42 1028.33 1028.15 1027.90 1027.59 1027.23 1026.85 1026.44 1026.03 1025.63 1025.22 1024.82 1024.41 1024.00 1023.58 1023.14 1022.70 1022.24
1022.93 1023.20 1023.45 1023.70 1023.95 1024.23 1024.53 1024.85 1025.18 1025.50 1025.81 1026.10 1026.35 1026.57 1026.78 1026.96 1027.15 1027.35 1027.55 1027.77 1027.99 1028.19 1028.37 1028.49 1028.55 1028.53 1028.42 1028.24 1027.98 1027.66 1027.30 1026.91 1026.51 1026.11 1025.72 1025.34 1024.97 1024.61 1024.24 1023.87 1023.48 1023.07 1022.65
1023.28 1023.51 1023.71 1023.90 1024.10 1024.31 1024.55 1024.81 1025.09 1025.38 1025.67 1025.96 1026.23 1026.49 1026.73 1026.95 1027.18 1027.40 1027.63 1027.85 1028.06 1028.25 1028.40 1028.50 1028.54 1028.51 1028.40 1028.21 1027.96 1027.66 1027.32 1026.96 1026.59 1026.23 1025.88 1025.55 1025.23 1024.91 1024.60 1024.27 1023.93 1023.55 1023.15
Thickness
5753 5759 5762 5763 5763 5761 5763 5762 5760 5756 5752 5747 5743 5738 5734 5732 5730 5728 5727 5726 5725 5723 5722 5719 5717 5716 5713 5710 5708 5705 5701 5697 5696 5692 5688 5687 5687 5685 5684 5684 5682 5681 5679
5740 5745 5748 5751 5750 5750 5750 5750 5751 5749 5747 5742 5739 5736 5730 5725 5722 5720 5718 5717 5715 5714 5713 5711 5709 5707 5705 5702 5700 5698 5694 5691 5689 5685 5680 5675 5675 5675 5674 5673 5672 5670 5669
5726 5729 5732 5735 5737 5737 5737 5738 5738 5740 5739 5736 5732 5729 5724 5717 5712 5708 5706 5705 5704 5703 5703 5701 5700 5698 5696 5693 5691 5689 5687 5682 5680 5679 5675 5669 5666 5665 5663 5662 5660 5658 5658
5714 5716 5719 5721 5723 5724 5727 5725 5724 5728 5729 5729 5726 5721 5714 5706 5700 5697 5694 5693 5692 5691 5691 5689 5688 5687 5686 5684 5682 5680 5678 5675 5671 5669 5667 5665 5662 5657 5654 5651 5649 5647 5645
5699 5702 5705 5707 5709 5712 5715 5716 5716 5716 5716 5718 5717 5712 5704 5696 5691 5687 5684 5682 5680 5679 5677 5676 5675 5674 5673 5671 5669 5667 5666 5664 5660 5657 5655 5654 5650 5648 5645 5640 5636 5634 5631
5686 5689 5693 5694 5696 5700 5703 5704 5704 5704 5703 5704 5703 5700 5695 5688 5682 5678 5674 5670 5668 5666 5665 5664 5663 5662 5660 5659 5657 5655 5653 5650 5647 5644 5641 5639 5635 5632 5630 5626 5622 5619 5617
5674 5676 5679 5681 5683 5686 5689 5691 5691 5690 5690 5690 5687 5685 5681 5677 5672 5666 5662 5658 5655 5653 5651 5651 5650 5649 5646 5645 5643 5641 5638 5635 5632 5629 5626 5623 5619 5617 5616 5612 5607 5604 5601
5662 5663 5665 5666 5668 5672 5675 5677 5677 5676 5676 5674 5671 5669 5666 5662 5657 5653 5650 5647 5644 5641 5639 5638 5637 5634 5632 5631 5629 5627 5624 5621 5618 5614 5611 5607 5604 5602 5600 5596 5592 5587 5583
5650 5651 5651 5651 5655 5658 5661 5662 5662 5662 5661 5659 5658 5654 5651 5648 5644 5640 5637 5635 5632 5629 5626 5624 5622 5619 5618 5616 5614 5611 5607 5605 5602 5598 5595 5592 5589 5587 5584 5581 5578 5572 5566
5638 5638 5638 5639 5641 5643 5645 5646 5646 5646 5645 5645 5644 5640 5637 5633 5630 5627 5624 5621 5618 5615 5612 5609 5607 5604 5603 5601 5598 5595 5592 5589 5586 5583 5580 5577 5573 5570 5567 5564 5560 5556 5550
5627 5626 5625 5625 5627 5629 5630 5630 5631 5631 5630 5629 5628 5626 5622 5619 5616 5614 5610 5607 5604 5601 5597 5594 5592 5590 5588 5585 5583 5580 5577 5574 5570 5567 5565 5561 5558 5554 5550 5547 5542 5537 5532
5616 5616 5615 5615 5615 5616 5616 5616 5616 5616 5614 5614 5613 5610 5607 5605 5602 5598 5595 5593 5590 5587 5583 5580 5578 5575 5573 5570 5567 5565 5562 5559 5555 5552 5549 5546 5542 5537 5533 5529 5524 5519 5515
5608 5607 5606 5604 5604 5603 5603 5602 5601 5601 5600 5599 5597 5595 5592 5590 5587 5584 5581 5578 5576 5573 5569 5566 5563 5561 5558 5556 5553 5551 5548 5544 5541 5538 5534 5530 5526 5521 5517 5512 5507 5502 5499
5599 5597 5595 5594 5593 5592 5591 5589 5588 5587 5586 5585 5583 5580 5577 5575 5573 5570 5567 5564 5562 5559 5555 5552 5550 5547 5544 5542 5539 5537 5533 5531 5528 5524 5521 5517 5512 5507 5503 5498 5493 5488 5483
5590 5588 5585 5583 5582 5580 5578 5577 5575 5574 5573 5572 5569 5566 5564 5562 5559 5557 5554 5552 5549 5546 5543 5540 5537 5535 5532 5529 5526 5524 5521 5517 5514 5511 5508 5504 5500 5495 5491 5487 5481 5477 5472
5582 5579 5577 5574 5572 5569 5567 5565 5564 5562 5561 5559 5556 5554 5552 5549 5546 5544 5541 5539 5536 5533 5531 5528 5525 5522 5519 5517 5515 5512 5508 5505 5502 5498 5495 5492 5488 5484 5480 5477 5474 5470 5466
5573 5569 5566 5563 5561 5558 5557 5554 5553 5551 5549 5546 5544 5542 5540 5537 5535 5533 5530 5527 5524 5521 5518 5515 5512 5509 5507 5506 5504 5501 5498 5494 5491 5488 5485 5482 5479 5475 5472 5469 5468 5466 5464
5564 5560 5556 5553 5550 5548 5546 5545 5543 5541 5538 5535 5533 5531 5529 5527 5524 5522 5519 5516 5513 5510 5507 5505 5502 5499 5497 5495 5493 5491 5488 5485 5483 5480 5477 5474 5472 5469 5466 5464 5463 5463 5463
5555 5551 5548 5545 5542 5539 5538 5536 5533 5531 5528 5526 5524 5522 5519 5517 5514 5511 5509 5507 5504 5501 5499 5496 5493 5491 5488 5487 5484 5482 5479 5476 5475 5473 5472 5470 5468 5466 5463 5461 5460 5460 5462
5547 5543 5539 5536 5533 5531 5530 5527 5524 5521 5519 5517 5515 5513 5510 5508 5505 5503 5501 5499 5497 5494 5492 5489 5486 5484 5481 5479 5476 5474 5471 5468 5467 5467 5467 5466 5465 5464 5462 5459 5457 5457 5459
5539 5535 5532 5528 5525 5524 5522 5518 5515 5513 5512 5510 5508 5505 5503 5501 5499 5497 5495 5493 5490 5487 5484 5482 5479 5476 5474 5471 5470 5468 5465 5462 5461 5461 5462 5463 5463 5463 5463 5461 5458 5458 5458
5532 5528 5524 5521 5518 5516 5514 5510 5507 5506 5505 5503 5500 5498 5496 5495 5493 5490 5488 5485 5483 5480 5477 5474 5472 5470 5468 5466 5464 5462 5461 5460 5458 5457 5459 5460 5462 5463 5464 5463 5462 5461 5460
5526 5522 5518 5514 5511 5509 5507 5504 5502 5501 5498 5495 5493 5491 5489 5487 5485 5483 5480 5477 5475 5472 5470 5467 5465 5463 5462 5460 5459 5458 5458 5457 5456 5456 5458 5459 5462 5463 5463 5462 5462 5461 5458
5521 5517 5513 5509 5505 5504 5502 5500 5498 5495 5492 5489 5486 5485 5482 5479 5477 5475 5473 5470 5467 5465 5464 5462 5459 5457 5456 5455 5455 5455 5455 5455 5455 5456 5457 5459 5460 5460 5460 5460 5459 5458 5456
5517 5513 5508 5504 5501 5499 5497 5495 5493 5490 5487 5484 5481 5478 5476 5473 5470 5468 5466 5465 5463 5462 5459 5457 5455 5453 5452 5452 5452 5450 5451 5451 5452 5452 5453 5454 5454 5454 5454 5454 5454 5454 5453
5513 5508 5504 5500 5498 5495 5493 5490 5488 5485 5481 5478 5475 5472 5470 5467 5464 5462 5459 5460 5459 5458 5457 5455 5453 5452 5451 5451 5450 5450 5451 5452 5452 5450 5448 5448 5448 5448 5448 5447 5448 5448 5448